Rome Ciampino, Italy

4:23 AM CEST on September 26, 2016 (GMT +0200)
Ciampino

Weather History for LIRA - February, 2015

Change the Weather History Date:

Monday, February 2, 2015

  Actual Average Record
Temperature  
Mean Temperature 42 °F -  
Max Temperature 49 °F 52 °F 64 °F (2016)
Min Temperature 35 °F 35 °F 30 °F (1999)
Degree Days  
Heating Degree Days 23    
Moisture  
Dew Point 34 °F    
Average Humidity 76    
Maximum Humidity 93    
Minimum Humidity 40    
Precipitation  
Precipitation 0.00 in - - ()
Sea Level Pressure  
Sea Level Pressure 29.54 in    
Wind  
Wind Speed 4 mph ()    
Max Wind Speed 9 mph    
Max Gust Speed 18 mph    
Visibility 6.3 miles    
Events Rain    
Averages and records for this station are not official NWS values.
T = Trace of Precipitation, MM = Missing Value Source: Averaged Metar Reports

Daily Weather History Graph

Daily Weather History Graph

Search for Another Location

Airport or City:

Trip Planner

Search our weather history database for the weather conditions in past years. The results will help you decide how hot, cold, wet, or windy it might be!

Date:

Astronomy

Feb. 02, 2015 Rise Set
Actual Time 7:21 AM CET 5:25 PM CET
Civil Twilight 6:52 AM CET 5:55 PM CET
Nautical Twilight 6:18 AM CET 6:28 PM CET
Astronomical Twilight 5:46 AM CET 7:01 PM CET
Moon 4:21 PM CET (2/2) 6:00 AM CET (2/2)
Length of Visible Light 11h 03m
Length of Day
10h 04m
Waxing Gibbous, 98% of the Moon is Illuminated
Feb 2
Waxing Gibbous
Feb 4
Full
Feb 12
Last Quarter
Feb 19
New
Feb 25
First Quarter

Hourly Weather History & Observations

Time (CET) Temp. Windchill Dew Point Humidity Pressure Visibility Wind Dir Wind Speed Gust Speed Precip Events Conditions
12:15 AM 35.6 °F 29.2 °F 32.0 °F 87% 29.44 in 5.0 mi NNW 8.1 mph - N/A Rain Light Rain
12:45 AM 35.6 °F 30.7 °F 33.8 °F 93% 29.42 in 6.2 mi East 5.8 mph - N/A   Mostly Cloudy
1:00 AM 36 °F - 33 °F 84% 29.45 in 6 mi East 5.8 mph - - Rain Light Rain
1:15 AM 35.6 °F - 33.8 °F 93% 29.42 in 6.2 mi Calm Calm - N/A   Mostly Cloudy
1:45 AM 35.6 °F - 32.0 °F 87% 29.42 in 6.2 mi North 2.3 mph - N/A   Mostly Cloudy
2:15 AM 35.6 °F - 33.8 °F 93% 29.42 in 6.2 mi Calm Calm - N/A Rain Light Rain
2:45 AM 35.6 °F 28.6 °F 33.8 °F 93% 29.42 in 6.2 mi South 9.2 mph - N/A Rain Light Rain
3:15 AM 37.4 °F 32.1 °F 35.6 °F 93% 29.42 in 6.2 mi South 6.9 mph - N/A   Scattered Clouds
3:45 AM 37.4 °F - 35.6 °F 93% 29.42 in 6.2 mi SE 2.3 mph - N/A   Scattered Clouds
4:00 AM 37 °F - 35 °F 90% 29.44 in 7 mi SE 2.3 mph - - Rain Light Rain
4:15 AM 37.4 °F - 35.6 °F 93% 29.42 in 6.2 mi Calm Calm - N/A Rain Light Rain
4:45 AM 37.4 °F - 35.6 °F 93% 29.44 in 6.2 mi Calm Calm - N/A Rain Light Rain
5:15 AM 37.4 °F 32.1 °F 35.6 °F 93% 29.44 in 6.2 mi ESE 6.9 mph - N/A Rain Light Rain
5:45 AM 37.4 °F - 35.6 °F 93% 29.44 in 6.2 mi SE 2.3 mph - N/A   Mostly Cloudy
6:15 AM 37.4 °F 34.9 °F 35.6 °F 93% 29.44 in 6.2 mi North 3.5 mph - N/A   Mostly Cloudy
6:45 AM 37.4 °F - 35.6 °F 93% 29.44 in 6.2 mi North 2.3 mph - N/A   Mostly Cloudy
7:15 AM 37.4 °F - 33.8 °F 87% 29.44 in 6.2 mi North 2.3 mph - N/A   Scattered Clouds
7:45 AM 35.6 °F 32.8 °F 33.8 °F 93% 29.47 in 6.2 mi North 3.5 mph - N/A   Scattered Clouds
8:15 AM 37.4 °F 34.9 °F 33.8 °F 87% 29.47 in 6.2 mi North 3.5 mph - N/A   Scattered Clouds
8:45 AM 37.4 °F 32.8 °F 33.8 °F 87% 29.50 in 6.2 mi NNW 5.8 mph - N/A   Partly Cloudy
9:15 AM 37.4 °F 33.8 °F 35.6 °F 93% 29.50 in 6.2 mi North 4.6 mph - N/A   Partly Cloudy
9:45 AM 37.4 °F 33.8 °F 35.6 °F 93% 29.50 in 6.2 mi North 4.6 mph - N/A   Partly Cloudy
10:00 AM 38 °F - 36 °F 88% 29.55 in 6 mi North 4.6 mph - -   Partly Cloudy
10:15 AM 39.2 °F 35.9 °F 35.6 °F 87% 29.53 in 6.2 mi North 4.6 mph - N/A   Partly Cloudy
10:45 AM 39.2 °F 35.9 °F 35.6 °F 87% 29.53 in 6.2 mi North 4.6 mph - N/A   Partly Cloudy
11:15 AM 41.0 °F 38.0 °F 35.6 °F 81% 29.53 in 6.2 mi North 4.6 mph - N/A   Partly Cloudy
11:45 AM 42.8 °F 40.1 °F 35.6 °F 76% 29.56 in - NNE 4.6 mph - N/A   Clear
12:15 PM 44.6 °F 43.1 °F 37.4 °F 76% 29.56 in 6.2 mi NNW 3.5 mph - N/A   Partly Cloudy
12:45 PM 44.6 °F - 35.6 °F 71% 29.56 in 6.2 mi NNW 2.3 mph - N/A   Partly Cloudy
1:00 PM 45 °F - 36 °F 62% 29.58 in 9 mi NNW 2.3 mph - -   Scattered Clouds
1:15 PM 46.4 °F 42.4 °F 33.8 °F 62% 29.56 in 6.2 mi NW 8.1 mph - N/A   Partly Cloudy
1:45 PM 46.4 °F 43.5 °F 30.2 °F 53% 29.56 in 6.2 mi North 5.8 mph - N/A   Partly Cloudy
2:15 PM 46.4 °F 42.9 °F 30.2 °F 53% 29.56 in 6.2 mi North 6.9 mph - N/A   Scattered Clouds
2:45 PM 48.2 °F - 32.0 °F 54% 29.56 in 6.2 mi North 6.9 mph - N/A   Partly Cloudy
3:15 PM 48.2 °F - 32.0 °F 54% 29.56 in 6.2 mi NW 4.6 mph - N/A   Partly Cloudy
3:45 PM 48.2 °F - 32.0 °F 54% 29.56 in 6.2 mi North 3.5 mph - N/A   Scattered Clouds
4:00 PM 48 °F - 31 °F 40% 29.60 in 9 mi North 3.5 mph - -   Scattered Clouds
4:15 PM 46.4 °F - 32.0 °F 57% 29.59 in 6.2 mi Calm Calm - N/A   Scattered Clouds
4:45 PM 46.4 °F - 30.2 °F 53% 29.59 in 6.2 mi Calm Calm - N/A   Scattered Clouds
5:15 PM 46.4 °F - 28.4 °F 50% 29.59 in 6.2 mi ENE 1.2 mph - N/A   Scattered Clouds
5:45 PM 44.6 °F - 28.4 °F 53% 29.59 in 6.2 mi Calm Calm - N/A   Mostly Cloudy
6:15 PM 44.6 °F - 33.8 °F 66% 29.62 in 6.2 mi South 1.2 mph - N/A   Mostly Cloudy
6:45 PM 44.6 °F 42.2 °F 33.8 °F 66% 29.62 in 6.2 mi SSE 4.6 mph - N/A   Mostly Cloudy
7:00 PM 44 °F - 33 °F 56% 29.64 in 9 mi SSE 4.6 mph - -   Scattered Clouds
7:15 PM 42.8 °F - 35.6 °F 76% 29.62 in 6.2 mi Calm Calm - N/A   Mostly Cloudy
7:45 PM 42.8 °F 39.3 °F 33.8 °F 70% 29.62 in 6.2 mi WNW 5.8 mph 18.4 mph N/A   Mostly Cloudy
8:15 PM 44.6 °F 39.7 °F 33.8 °F 66% 29.65 in 6.2 mi West 9.2 mph - N/A Rain Light Rain
8:45 PM 44.6 °F - 30.2 °F 57% 29.65 in 6.2 mi Calm Calm - N/A   Mostly Cloudy
9:15 PM 39.2 °F 35.0 °F 33.8 °F 81% 29.65 in 6.2 mi SE 5.8 mph - N/A   Mostly Cloudy
9:45 PM 41.0 °F 36.4 °F 32.0 °F 70% 29.65 in 6.2 mi East 6.9 mph - N/A   Scattered Clouds
10:00 PM 40 °F - 32 °F 63% 29.70 in 6 mi East 6.9 mph - -   Partly Cloudy
10:15 PM 41.0 °F - 32.0 °F 70% 29.65 in 6.2 mi Calm Calm - N/A   Scattered Clouds
10:45 PM 41.0 °F - 33.8 °F 76% 29.65 in 6.2 mi Calm Calm - N/A   Scattered Clouds
11:15 PM 39.2 °F 37.0 °F 32.0 °F 75% 29.65 in 6.2 mi SSE 3.5 mph - N/A   Scattered Clouds
11:45 PM 39.2 °F - 33.8 °F 81% 29.65 in 6.2 mi South 2.3 mph - N/A   Scattered Clouds